| DS18B20 | SHTC3 | ||||||
|---|---|---|---|---|---|---|---|
| ID | Date d/m/Y & Time | data1 สูง | data2 ต่ำ | data3 นอก | temp pcb | hum pcb | Time |
| 7883 | 01/04/2026 18:31:21 | 30.8  | 30.9  | 29.7  | 30.8  | 71.6  | 18:31 |
| 7882 | 01/04/2026 18:26:39 | 30.8  | 30.9  | 29.7  | 30.9  | 71.5  | 18:26 |
| 7881 | 01/04/2026 18:21:57 | 30.9  | 31.0  | 29.8  | 30.8  | 71.4  | 18:21 |
| 7880 | 01/04/2026 18:17:15 | 30.9  | 31.0  | 30.0  | 31.0  | 71.4  | 18:17 |
| 7879 | 01/04/2026 18:12:33 | 31.0  | 31.1  | 29.9  | 30.9  | 71.2  | 18:12 |
| 7878 | 01/04/2026 18:07:51 | 31.1  | 31.1  | 30.0  | 31.1  | 71.2  | 18:07 |
| 7877 | 01/04/2026 18:03:09 | 31.1  | 31.1  | 30.0  | 31.1  | 71.1  | 18:03 |
| 7876 | 01/04/2026 17:58:27 | 31.1  | 31.1  | 30.2  | 31.1  | 71.1  | 17:58 |
| 7875 | 01/04/2026 17:53:45 | 31.2  | 31.2  | 30.2  | 31.1  | 71.0  | 17:53 |
| 7874 | 01/04/2026 17:49:03 | 31.2  | 31.2  | 30.3  | 31.2  | 71.0  | 17:49 |
| 7873 | 01/04/2026 17:44:21 | 31.2  | 31.2  | 30.3  | 31.1  | 70.9  | 17:44 |
| 7872 | 01/04/2026 17:39:37 | 31.2  | 31.2  | 30.5  | 31.1  | 70.8  | 17:39 |
| 7871 | 01/04/2026 17:34:55 | 31.3  | 31.3  | 30.6  | 31.4  | 70.6  | 17:34 |
| 7870 | 01/04/2026 17:30:13 | 31.3  | 31.3  | 30.6  | 31.4  | 70.5  | 17:30 |
| 7869 | 01/04/2026 17:25:31 | 31.4  | 31.3  | 30.7  | 31.1  | 70.5  | 17:25 |
| 7868 | 01/04/2026 17:20:49 | 31.4  | 31.3  | 30.8  | 31.2  | 70.4  | 17:20 |
| 7867 | 01/04/2026 17:16:06 | 31.4  | 31.4  | 30.9  | 31.4  | 70.5  | 17:16 |
| 7866 | 01/04/2026 17:11:24 | 31.4  | 31.4  | 31.0  | 31.4  | 70.2  | 17:11 |
| 7865 | 01/04/2026 17:06:42 | 31.4  | 31.4  | 30.9  | 31.4  | 70.3  | 17:06 |
| 7864 | 01/04/2026 17:01:59 | 31.5  | 31.4  | 31.1  | 31.4  | 70.4  | 17:01 |
| 7863 | 01/04/2026 16:57:15 | 31.5  | 31.4  | 31.0  | 31.5  | 70.3  | 16:57 |
| 7862 | 01/04/2026 16:52:33 | 31.6  | 31.4  | 31.0  | 31.4  | 70.3  | 16:52 |
| 7861 | 01/04/2026 16:47:52 | 31.6  | 31.4  | 31.1  | 31.5  | 70.0  | 16:47 |
| 7860 | 01/04/2026 16:43:08 | 31.6  | 31.4  | 31.2  | 31.5  | 70.1  | 16:43 |